Orbital Elements at Epoch 2459200.5 (2020-Dec-17.0) TDB
Reference: JPL 19 (heliocentric ecliptic J2000)
Element | Value | Uncertainty (1-sigma) | Units |
e | .1157372539221398 | 5.0783e-08 | |
a | 2.981005379831285 | 2.5818e-08 | au |
q | 2.635992003242487 | 1.4458e-07 | au |
i | 10.99635721630781 | 5.3137e-06 | deg |
node | 162.0359117013622 | 2.5454e-05 | deg |
peri | 163.7932823106954 | 3.8035e-05 | deg |
M | 207.0999727610316 | 3.3081e-05 | deg |
tp | 2459998.949822336370 (2023-Feb-23.44982234) | 0.00017811 | TDB |
period | 1879.933844562685 5.15 | 2.4423e-05 6.687e-08 | d yr |
n | .1914961002703497 | 2.4878e-09 | deg/d |
Q | 3.326018756420083 | 2.8807e-08 | au |
|
| | Orbit Determination Parameters
Additional Information
|